QPF
0.03 0.03 0.04 0.04 0.05 0.05 0.04 0.04 0.03 0.03 0.02 0.02 0.02 0.03 0.04 0.05 0.06 0.05 0.04 0.05 0.04 0.05 0.05 0.05 0.04 0.03 0.03 0.04 0.04 0.04 0.05 0.05 0.04 0.03 0.02 0.02 0.02 0.03
0.03 0.02 0.03 0.03 0.04 0.05 0.05 0.05 0.04 0.03 0.03 0.02 0.02 0.03 0.03 0.04 0.04 0.04 0.03 0.03 0.03 0.03 0.04 0.05 0.05 0.04 0.03 0.03 0.03 0.04 0.04 0.04 0.04 0.05 0.04 0.04 0.03 0.03
0.04 0.03 0.03 0.03 0.04 0.04 0.04 0.04 0.04 0.04 0.04 0.03 0.02 0.03 0.03 0.04 0.04 0.04 0.03 0.02 0.01 0.01 0.02 0.03 0.04 0.04 0.04 0.03 0.03 0.03 0.03 0.03 0.02 0.03 0.04 0.04 0.04 0.03
0.04 0.04 0.03 0.03 0.03 0.03 0.03 0.03 0.03 0.03 0.03 0.03 0.02 0.03 0.03 0.03 0.04 0.04 0.04 0.04 0.03 0.02 0.02 0.02 0.03 0.04 0.04 0.04 0.03 0.03 0.02 0.02 0.02 0.02 0.02 0.03 0.04 0.03
0.05 0.05 0.04 0.04 0.03 0.03 0.03 0.02 0.02 0.02 0.02 0.03 0.02 0.02 0.03 0.03 0.03 0.04 0.05 0.05 0.04 0.03 0.03 0.03 0.03 0.03 0.04 0.04 0.04 0.04 0.03 0.02 0.02 0.02 0.02 0.02 0.03 0.03
0.04 0.04 0.05 0.04 0.04 0.04 0.03 0.03 0.02 0.02 0.02 0.02 0.02 0.02 0.02 0.02 0.02 0.03 0.03 0.04 0.04 0.04 0.03 0.02 0.02 0.03 0.04 0.05 0.04 0.04 0.03 0.02 0.02 0.02 0.02 0.02 0.01 0.02
0.03 0.03 0.03 0.04 0.04 0.04 0.04 0.03 0.02 0.02 0.02 0.02 0.02 0.02 0.02 0.02 0.03 0.02 0.03 0.03 0.03 0.03 0.03 0.02 0.02 0.02 0.03 0.04 0.05 0.04 0.03 0.03 0.02 0.02 0.02 0.02 0.02 0.02
0.03 0.03 0.04 0.04 0.04 0.04 0.03 0.03 0.02 0.02 0.02 0.02 0.02 0.02 0.02 0.02 0.03 0.03 0.03 0.03 0.03 0.03 0.03 0.03 0.02 0.02 0.02 0.02 0.04 0.04 0.04 0.03 0.03 0.03 0.03 0.03 0.02 0.02
0.02 0.03 0.03 0.04 0.05 0.03 0.03 0.03 0.02 0.02 0.02 0.02 0.02 0.02 0.03 0.03 0.04 0.05 0.05 0.04 0.03 0.03 0.03 0.03 0.03 0.03 0.03 0.03 0.04 0.04 0.03 0.03 0.03 0.03 0.03 0.03 0.03 0.02
0.02 0.03 0.03 0.04 0.05 0.05 0.04 0.03 0.03 0.02 0.02 0.02 0.02 0.02 0.03 0.03 0.04 0.05 0.05 0.05 0.04 0.03 0.03 0.04 0.04 0.04 0.04 0.04 0.05 0.04 0.03 0.03 0.03 0.03 0.03 0.03 0.02 0.02
0.02 0.02 0.03 0.04 0.06 0.07 0.06 0.05 0.05 0.04 0.04 0.03 0.03 0.03 0.03 0.03 0.04 0.04 0.04 0.04 0.04 0.03 0.03 0.03 0.03 0.04 0.05 0.05 0.05 0.04 0.04 0.03 0.03 0.03 0.03 0.02 0.02 0.02
0.02 0.02 0.03 0.03 0.05 0.06 0.06 0.06 0.06 0.05 0.05 0.04 0.04 0.03 0.03 0.03 0.03 0.03 0.04 0.04 0.04 0.03 0.03 0.04 0.04 0.04 0.05 0.05 0.04 0.04 0.03 0.03 0.03 0.03 0.03 0.02 0.02 0.01
0.02 0.02 0.02 0.04 0.04 0.05 0.05 0.05 0.06 0.06 0.05 0.04 0.03 0.02 0.02 0.02 0.02 0.03 0.03 0.04 0.05 0.04 0.03 0.05 0.06 0.05 0.05 0.05 0.04 0.04 0.03 0.03 0.03 0.03 0.02 0.01 0.01 0.01
0.03 0.02 0.02 0.03 0.04 0.04 0.05 0.05 0.05 0.06 0.05 0.04 0.03 0.03 0.03 0.02 0.02 0.03 0.03 0.03 0.03 0.04 0.03 0.05 0.07 0.06 0.06 0.05 0.04 0.04 0.04 0.03 0.03 0.02 0.01 0.01 0.01 0.01
0.03 0.03 0.03 0.03 0.03 0.04 0.05 0.05 0.04 0.04 0.04 0.04 0.04 0.03 0.02 0.02 0.02 0.02 0.03 0.03 0.03 0.03 0.03 0.03 0.04 0.05 0.05 0.05 0.05 0.04 0.04 0.03 0.02 0.02 0.01 0.01 0.01 0.01
0.04 0.04 0.03 0.03 0.03 0.03 0.04 0.04 0.04 0.04 0.03 0.03 0.03 0.02 0.02 0.02 0.01 0.01 0.02 0.02 0.03 0.03 0.03 0.03 0.03 0.03 0.04 0.04 0.04 0.04 0.03 0.03 0.02 0.01 0.01 0.00 0.00 0.01
0.03 0.03 0.03 0.02 0.02 0.02 0.02 0.02 0.03 0.03 0.02 0.02 0.02 0.01 0.01 0.01 0.01 0.01 0.01 0.01 0.02 0.02 0.02 0.02 0.03 0.03 0.03 0.03 0.03 0.03 0.02 0.02 0.01 0.01 0.01 0.01 0.01 0.01
0.02 0.02 0.02 0.02 0.02 0.02 0.02 0.02 0.02 0.01 0.01 0.02 0.02 0.01 0.01 0.01 0.01 0.01 0.01 0.01 0.02 0.02 0.02 0.02 0.02 0.03 0.03 0.03 0.03 0.02 0.02 0.02 0.01 0.01 0.01 0.01 0.01 0.00
0.02 0.02 0.02 0.02 0.02 0.02 0.02 0.02 0.02 0.01 0.01 0.01 0.01 0.01 0.02 0.02 0.01 0.01 0.01 0.01 0.02 0.02 0.02 0.02 0.03 0.03 0.03 0.02 0.03 0.02 0.02 0.02 0.02 0.01 0.01 0.01 0.01 0.00
0.02 0.02 0.02 0.01 0.01 0.01 0.02 0.02 0.01 0.01 0.01 0.01 0.01 0.01 0.02 0.02 0.02 0.02 0.02 0.02 0.02 0.02 0.02 0.02 0.03 0.04 0.05 0.04 0.03 0.02 0.01 0.02 0.02 0.02 0.01 0.01 0.00 0.00
0.02 0.01 0.01 0.01 0.01 0.01 0.01 0.01 0.01 0.01 0.01 0.01 0.01 0.01 0.01 0.02 0.02 0.02 0.02 0.02 0.02 0.02 0.02 0.02 0.02 0.03 0.03 0.03 0.02 0.02 0.02 0.01 0.02 0.02 0.02 0.02 0.01 0.01
0.01 0.01 0.01 0.01 0.01 0.01 0.01 0.01 0.01 0.01 0.01 0.01 0.01 0.01 0.01 0.02 0.02 0.02 0.03 0.03 0.03 0.03 0.02 0.02 0.02 0.02 0.02 0.03 0.02 0.02 0.02 0.01 0.01 0.01 0.02 0.02 0.03 0.03
0.01 0.01 0.01 0.01 0.01 0.01 0.01 0.01 0.01 0.01 0.01 0.01 0.01 0.01 0.01 0.02 0.02 0.02 0.02 0.03 0.03 0.03 0.03 0.02 0.02 0.02 0.02 0.02 0.02 0.02 0.02 0.01 0.01 0.01 0.01 0.01 0.01 0.01
MSLP
1017.19 1017.26 1017.30 1017.28 1017.17 1016.95 1016.63 1016.23 1015.79 1015.36 1014.96 1014.64 1014.41 1014.25 1014.17 1014.13 1014.12 1014.13 1014.16 1014.21 1014.30 1014.43 1014.62 1014.85 1015.11 1015.35 1015.56 1015.68 1015.71 1015.63 1015.46 1015.22 1014.97 1014.73 1014.56 1014.46 1014.45 1014.51
1017.02 1017.07 1017.10 1017.07 1016.96 1016.74 1016.43 1016.05 1015.63 1015.20 1014.81 1014.49 1014.23 1014.05 1013.92 1013.84 1013.79 1013.76 1013.76 1013.78 1013.85 1013.99 1014.18 1014.42 1014.69 1014.95 1015.17 1015.32 1015.35 1015.28 1015.11 1014.88 1014.63 1014.40 1014.23 1014.15 1014.15 1014.23
1017.07 1017.09 1017.10 1017.06 1016.94 1016.72 1016.42 1016.05 1015.64 1015.22 1014.82 1014.47 1014.18 1013.94 1013.76 1013.61 1013.48 1013.39 1013.32 1013.30 1013.34 1013.46 1013.64 1013.89 1014.18 1014.47 1014.72 1014.89 1014.95 1014.91 1014.76 1014.56 1014.33 1014.12 1013.96 1013.90 1013.92 1014.01
1017.27 1017.28 1017.27 1017.21 1017.08 1016.86 1016.57 1016.20 1015.79 1015.36 1014.95 1014.57 1014.23 1013.93 1013.67 1013.43 1013.21 1013.03 1012.88 1012.79 1012.78 1012.86 1013.04 1013.29 1013.59 1013.91 1014.19 1014.40 1014.51 1014.52 1014.42 1014.26 1014.06 1013.89 1013.77 1013.72 1013.76 1013.87
1017.57 1017.56 1017.54 1017.47 1017.33 1017.10 1016.80 1016.43 1016.02 1015.59 1015.16 1014.75 1014.36 1013.99 1013.65 1013.31 1013.00 1012.72 1012.48 1012.31 1012.24 1012.27 1012.41 1012.65 1012.96 1013.30 1013.63 1013.89 1014.06 1014.13 1014.10 1014.00 1013.86 1013.73 1013.64 1013.62 1013.68 1013.81
1017.88 1017.87 1017.83 1017.75 1017.59 1017.36 1017.05 1016.68 1016.28 1015.84 1015.40 1014.96 1014.53 1014.11 1013.69 1013.27 1012.87 1012.49 1012.16 1011.91 1011.76 1011.73 1011.84 1012.06 1012.36 1012.72 1013.08 1013.40 1013.63 1013.77 1013.82 1013.79 1013.72 1013.64 1013.60 1013.61 1013.69 1013.83
1018.14 1018.13 1018.08 1017.97 1017.80 1017.56 1017.25 1016.88 1016.47 1016.04 1015.60 1015.16 1014.70 1014.25 1013.78 1013.31 1012.83 1012.38 1011.97 1011.64 1011.42 1011.33 1011.39 1011.57 1011.86 1012.22 1012.61 1012.97 1013.27 1013.49 1013.61 1013.66 1013.66 1013.65 1013.65 1013.69 1013.78 1013.93
1018.31 1018.29 1018.22 1018.10 1017.91 1017.65 1017.33 1016.97 1016.57 1016.16 1015.73 1015.30 1014.85 1014.39 1013.91 1013.41 1012.91 1012.41 1011.94 1011.55 1011.27 1011.12 1011.12 1011.26 1011.52 1011.87 1012.27 1012.67 1013.02 1013.31 1013.51 1013.64 1013.71 1013.75 1013.79 1013.85 1013.96 1014.11
1018.35 1018.32 1018.24 1018.10 1017.89 1017.62 1017.30 1016.94 1016.56 1016.17 1015.77 1015.37 1014.96 1014.53 1014.07 1013.58 1013.08 1012.57 1012.08 1011.65 1011.32 1011.11 1011.05 1011.14 1011.37 1011.70 1012.10 1012.52 1012.91 1013.26 1013.53 1013.73 1013.87 1013.96 1014.03 1014.12 1014.22 1014.36
1018.25 1018.21 1018.12 1017.97 1017.75 1017.48 1017.16 1016.81 1016.45 1016.09 1015.73 1015.38 1015.02 1014.65 1014.24 1013.80 1013.33 1012.84 1012.36 1011.92 1011.56 1011.31 1011.20 1011.24 1011.42 1011.72 1012.10 1012.52 1012.95 1013.34 1013.67 1013.94 1014.13 1014.27 1014.38 1014.47 1014.57 1014.69
1018.02 1017.99 1017.90 1017.74 1017.53 1017.25 1016.94 1016.61 1016.28 1015.95 1015.65 1015.35 1015.06 1014.76 1014.43 1014.06 1013.65 1013.21 1012.75 1012.33 1011.96 1011.68 1011.53 1011.52 1011.65 1011.90 1012.26 1012.68 1013.12 1013.54 1013.93 1014.24 1014.49 1014.68 1014.81 1014.91 1015.00 1015.09
1017.71 1017.69 1017.61 1017.47 1017.27 1017.01 1016.72 1016.41 1016.10 1015.81 1015.55 1015.31 1015.09 1014.86 1014.61 1014.33 1013.99 1013.62 1013.22 1012.82 1012.46 1012.17 1011.98 1011.92 1012.01 1012.21 1012.54 1012.94 1013.39 1013.84 1014.26 1014.62 1014.92 1015.14 1015.30 1015.41 1015.49 1015.56
1017.34 1017.35 1017.30 1017.19 1017.02 1016.79 1016.52 1016.23 1015.96 1015.70 1015.48 1015.29 1015.13 1014.98 1014.81 1014.60 1014.35 1014.05 1013.71 1013.35 1013.01 1012.71 1012.51 1012.41 1012.45 1012.61 1012.90 1013.28 1013.72 1014.18 1014.62 1015.03 1015.37 1015.63 1015.82 1015.94 1016.01 1016.05
1016.95 1017.01 1017.01 1016.94 1016.81 1016.62 1016.38 1016.12 1015.87 1015.64 1015.45 1015.31 1015.20 1015.10 1015.00 1014.87 1014.69 1014.46 1014.19 1013.88 1013.56 1013.28 1013.06 1012.93 1012.93 1013.05 1013.29 1013.64 1014.06 1014.53 1014.99 1015.42 1015.79 1016.09 1016.30 1016.44 1016.51 1016.54
1016.60 1016.70 1016.75 1016.74 1016.65 1016.50 1016.30 1016.07 1015.84 1015.64 1015.48 1015.36 1015.28 1015.23 1015.18 1015.11 1015.00 1014.84 1014.62 1014.36 1014.08 1013.80 1013.58 1013.44 1013.40 1013.48 1013.69 1014.00 1014.40 1014.84 1015.31 1015.75 1016.15 1016.47 1016.71 1016.86 1016.94 1016.96
1016.29 1016.44 1016.54 1016.58 1016.55 1016.44 1016.27 1016.07 1015.86 1015.68 1015.53 1015.43 1015.37 1015.35 1015.34 1015.32 1015.26 1015.15 1014.98 1014.77 1014.52 1014.27 1014.05 1013.90 1013.84 1013.89 1014.05 1014.32 1014.69 1015.11 1015.56 1016.00 1016.41 1016.74 1016.99 1017.16 1017.24 1017.26
1016.06 1016.24 1016.39 1016.46 1016.47 1016.39 1016.26 1016.09 1015.90 1015.73 1015.59 1015.50 1015.46 1015.45 1015.46 1015.47 1015.44 1015.37 1015.25 1015.08 1014.87 1014.65 1014.44 1014.29 1014.21 1014.24 1014.37 1014.60 1014.92 1015.31 1015.74 1016.16 1016.55 1016.88 1017.13 1017.30 1017.39 1017.40
1015.90 1016.10 1016.26 1016.37 1016.39 1016.35 1016.24 1016.09 1015.92 1015.76 1015.63 1015.55 1015.51 1015.51 1015.53 1015.55 1015.54 1015.50 1015.41 1015.28 1015.10 1014.91 1014.73 1014.59 1014.51 1014.52 1014.63 1014.83 1015.11 1015.46 1015.84 1016.22 1016.58 1016.89 1017.13 1017.29 1017.38 1017.38
1015.79 1015.99 1016.16 1016.26 1016.30 1016.27 1016.18 1016.05 1015.90 1015.76 1015.65 1015.56 1015.52 1015.52 1015.53 1015.55 1015.56 1015.53 1015.47 1015.36 1015.22 1015.06 1014.92 1014.80 1014.74 1014.75 1014.84 1015.01 1015.26 1015.56 1015.90 1016.24 1016.56 1016.83 1017.04 1017.18 1017.24 1017.24
1015.71 1015.89 1016.04 1016.14 1016.18 1016.16 1016.08 1015.97 1015.85 1015.72 1015.62 1015.54 1015.50 1015.48 1015.49 1015.50 1015.50 1015.48 1015.43 1015.34 1015.24 1015.12 1015.01 1014.93 1014.90 1014.93 1015.02 1015.18 1015.41 1015.67 1015.96 1016.25 1016.52 1016.74 1016.91 1017.01 1017.05 1017.02
1015.63 1015.78 1015.90 1015.98 1016.02 1016.00 1015.95 1015.86 1015.76 1015.66 1015.56 1015.49 1015.44 1015.41 1015.40 1015.40 1015.38 1015.36 1015.32 1015.26 1015.18 1015.11 1015.05 1015.02 1015.03 1015.09 1015.20 1015.36 1015.57 1015.81 1016.06 1016.30 1016.52 1016.69 1016.81 1016.87 1016.87 1016.81
1015.52 1015.63 1015.73 1015.80 1015.83 1015.82 1015.78 1015.72 1015.65 1015.57 1015.50 1015.43 1015.38 1015.34 1015.31 1015.28 1015.25 1015.22 1015.18 1015.14 1015.10 1015.07 1015.07 1015.09 1015.15 1015.26 1015.40 1015.59 1015.80 1016.02 1016.24 1016.44 1016.60 1016.72 1016.79 1016.81 1016.77 1016.68
1015.35 1015.44 1015.52 1015.58 1015.61 1015.62 1015.61 1015.58 1015.54 1015.48 1015.43 1015.37 1015.32 1015.26 1015.22 1015.17 1015.13 1015.09 1015.06 1015.04 1015.03 1015.05 1015.10 1015.18 1015.30 1015.46 1015.65 1015.85 1016.07 1016.29 1016.49 1016.66 1016.78 1016.86 1016.89 1016.86 1016.78 1016.65
Thickness
5560 5559 5557 5555 5555 5554 5552 5549 5546 5544 5545 5544 5542 5541 5538 5535 5534 5532 5531 5530 5529 5528 5528 5527 5526 5524 5523 5523 5522 5522 5521 5520 5517 5516 5515 5513 5512 5511
5550 5548 5547 5545 5544 5543 5541 5539 5536 5534 5533 5533 5530 5529 5527 5524 5522 5521 5520 5519 5518 5517 5516 5516 5515 5514 5513 5512 5513 5512 5511 5510 5508 5506 5504 5503 5502 5500
5538 5537 5536 5534 5533 5532 5531 5528 5526 5523 5521 5522 5518 5517 5514 5513 5511 5509 5508 5507 5506 5504 5504 5503 5503 5503 5501 5502 5502 5501 5500 5499 5498 5496 5494 5493 5492 5491
5527 5526 5525 5523 5521 5520 5519 5517 5515 5512 5510 5509 5507 5505 5503 5501 5500 5497 5496 5495 5493 5492 5491 5491 5491 5491 5490 5490 5490 5490 5489 5488 5486 5485 5484 5483 5482 5480
5517 5515 5515 5513 5511 5509 5508 5506 5504 5502 5499 5497 5495 5493 5491 5490 5488 5486 5483 5482 5480 5479 5478 5479 5479 5478 5478 5478 5477 5478 5477 5477 5476 5474 5473 5472 5471 5470
5506 5505 5504 5503 5501 5500 5498 5496 5493 5490 5488 5485 5483 5480 5478 5476 5474 5472 5472 5470 5468 5467 5466 5466 5466 5466 5466 5466 5466 5466 5466 5465 5464 5463 5462 5461 5461 5460
5495 5494 5493 5493 5491 5490 5488 5485 5482 5479 5476 5473 5471 5468 5466 5463 5461 5459 5458 5457 5457 5454 5454 5455 5455 5456 5455 5454 5454 5454 5454 5453 5452 5452 5451 5451 5450 5450
5484 5483 5482 5481 5480 5478 5477 5475 5472 5469 5466 5462 5459 5456 5454 5451 5449 5446 5443 5443 5444 5443 5441 5443 5442 5443 5443 5443 5442 5442 5442 5441 5441 5440 5440 5440 5439 5439
5473 5472 5471 5470 5469 5467 5466 5463 5460 5458 5456 5452 5448 5445 5443 5440 5438 5435 5432 5429 5429 5428 5428 5431 5430 5430 5431 5431 5430 5430 5430 5429 5429 5429 5429 5428 5427 5427
5462 5461 5460 5459 5457 5457 5455 5452 5449 5446 5444 5442 5439 5436 5433 5430 5427 5424 5421 5419 5417 5415 5415 5417 5418 5418 5419 5419 5419 5419 5418 5417 5417 5416 5416 5416 5416 5415
5451 5449 5449 5448 5447 5446 5444 5441 5438 5435 5432 5430 5428 5424 5422 5419 5416 5412 5409 5408 5408 5406 5404 5403 5405 5406 5407 5407 5407 5406 5406 5404 5404 5404 5404 5404 5403 5403
5439 5438 5438 5438 5437 5435 5433 5430 5427 5424 5421 5418 5415 5413 5409 5407 5404 5401 5399 5396 5394 5394 5393 5391 5391 5391 5394 5396 5394 5393 5393 5392 5392 5391 5391 5391 5391 5391
5428 5427 5427 5427 5426 5424 5421 5419 5417 5414 5410 5405 5403 5400 5397 5395 5392 5389 5387 5384 5382 5380 5380 5379 5378 5377 5377 5380 5382 5381 5381 5381 5380 5379 5379 5379 5380 5380
5416 5415 5415 5415 5414 5411 5409 5407 5405 5402 5398 5394 5391 5387 5384 5382 5379 5377 5375 5373 5371 5370 5368 5367 5367 5367 5367 5368 5370 5371 5370 5369 5369 5369 5369 5369 5369 5369
5405 5404 5403 5402 5400 5397 5395 5394 5391 5388 5385 5381 5378 5375 5372 5369 5367 5365 5363 5362 5361 5359 5358 5358 5358 5358 5358 5358 5359 5359 5359 5360 5359 5359 5359 5359 5359 5360
5394 5391 5390 5388 5386 5384 5382 5379 5376 5374 5372 5369 5366 5362 5360 5357 5355 5354 5352 5351 5350 5348 5348 5348 5348 5349 5349 5349 5350 5350 5349 5349 5350 5350 5350 5350 5351 5351
5381 5379 5376 5373 5371 5369 5367 5365 5363 5361 5358 5355 5353 5351 5348 5346 5345 5343 5342 5340 5339 5338 5339 5339 5339 5339 5340 5341 5342 5342 5341 5341 5341 5340 5341 5343 5344 5344
5370 5366 5363 5360 5358 5356 5354 5352 5351 5348 5346 5344 5342 5340 5338 5337 5335 5334 5333 5331 5329 5329 5329 5329 5330 5332 5333 5333 5334 5334 5333 5333 5333 5333 5334 5335 5337 5339
5358 5354 5351 5348 5345 5344 5342 5341 5339 5337 5335 5334 5332 5330 5328 5327 5326 5325 5323 5322 5321 5320 5319 5319 5320 5322 5323 5324 5325 5325 5325 5326 5326 5327 5327 5328 5329 5332
5345 5343 5340 5338 5335 5334 5332 5330 5329 5327 5325 5324 5322 5320 5318 5317 5316 5315 5314 5313 5312 5311 5311 5311 5311 5312 5313 5314 5315 5317 5318 5318 5319 5321 5322 5323 5324 5326
5335 5333 5331 5329 5326 5324 5322 5321 5319 5318 5316 5314 5312 5310 5309 5308 5308 5307 5306 5305 5305 5304 5303 5303 5304 5305 5305 5305 5307 5310 5312 5313 5313 5314 5316 5317 5319 5321
5325 5324 5322 5320 5318 5316 5314 5312 5310 5309 5307 5305 5303 5302 5301 5300 5300 5299 5299 5298 5297 5297 5296 5296 5297 5298 5298 5299 5300 5302 5305 5308 5309 5310 5311 5311 5311 5313
5316 5314 5313 5311 5309 5306 5304 5303 5301 5300 5298 5296 5295 5294 5293 5293 5293 5292 5292 5291 5290 5290 5289 5290 5290 5291 5291 5292 5293 5295 5297 5300 5303 5305 5307 5308 5309 5310